| time (UTC) | temp C | wind direction | speed KPH | gust KPH | rain 1hr cm | rain 24hr cm | rain mn cm | humidity % | barometer mb |
| 20260506044521 | 12 | 5 | 0.0 | 1.6 | 0.00 | 0.00 | 0.00 | 88 | 1008.2 |
| 20260506044018 | 12 | 292 | 0.0 | 0.0 | 0.00 | 0.00 | 0.00 | 87 | 1008.1 |
| 20260506043515 | 12 | 273 | 0.0 | 0.0 | 0.00 | 0.00 | 0.00 | 87 | 1008.0 |
| 20260506043013 | 12 | 316 | 0.0 | 0.0 | 0.00 | 0.00 | 0.00 | 86 | 1008.0 |
| 20260506042512 | 12 | 258 | 0.0 | 0.0 | 0.00 | 0.00 | 0.00 | 87 | 1008.0 |
| 20260506042010 | 12 | 313 | 0.0 | 0.0 | 0.00 | 0.00 | 0.00 | 86 | 1008.1 |
| 20260506041508 | 12 | 301 | 0.0 | 0.0 | 0.00 | 0.00 | 0.00 | 85 | 1008.1 |
| 20260506041005 | 13 | 329 | 0.0 | 0.0 | 0.00 | 0.00 | 0.00 | 86 | 1007.9 |
| 20260506040503 | 13 | 336 | 0.0 | 1.6 | 0.00 | 0.00 | 0.00 | 84 | 1008.1 |
| 20260506035958 | 13 | 211 | 1.6 | 1.6 | 0.00 | 0.00 | 0.00 | 83 | 1008.2 |
| 20260506035455 | 13 | 270 | 0.0 | 0.0 | 0.00 | 0.00 | 0.00 | 83 | 1008.2 |
| 20260506034951 | 13 | 251 | 0.0 | 0.0 | 0.00 | 0.00 | 0.00 | 82 | 1008.2 |
| 20260506034449 | 13 | 321 | 1.6 | 1.6 | 0.00 | 0.00 | 0.00 | 82 | 1008.0 |
| 20260506033946 | 14 | 280 | 0.0 | 0.0 | 0.00 | 0.00 | 0.00 | 83 | 1007.9 |
| 20260506033444 | 14 | 335 | 1.6 | 1.6 | 0.00 | 0.00 | 0.00 | 81 | 1007.9 |
| 20260506032940 | 14 | 248 | 0.0 | 0.0 | 0.00 | 0.00 | 0.00 | 82 | 1008.0 |
| 20260506032437 | 14 | 251 | 0.0 | 0.0 | 0.00 | 0.00 | 0.00 | 82 | 1007.9 |
| 20260506031934 | 13 | 286 | 0.0 | 0.0 | 0.00 | 0.00 | 0.00 | 83 | 1007.8 |
| 20260506031431 | 13 | 282 | 0.0 | 0.0 | 0.00 | 0.00 | 0.00 | 84 | 1007.9 |
| 20260506030929 | 14 | 289 | 0.0 | 0.0 | 0.00 | 0.00 | 0.00 | 84 | 1007.8 |
| 20260506030427 | 14 | 342 | 0.0 | 0.0 | 0.00 | 0.00 | 0.00 | 84 | 1007.9 |
| 20260506025923 | 14 | 291 | 0.0 | 0.0 | 0.00 | 0.00 | 0.00 | 83 | 1007.7 |
| 20260506025420 | 15 | 286 | 0.0 | 0.0 | 0.00 | 0.00 | 0.00 | 82 | 1007.8 |
| 20260506024917 | 15 | 323 | 0.0 | 0.0 | 0.00 | 0.00 | 0.00 | 81 | 1007.7 |
| 20260506024414 | 15 | 271 | 0.0 | 0.0 | 0.00 | 0.00 | 0.00 | 80 | 1007.9 |
| 20260506023910 | 15 | 289 | 0.0 | 0.0 | 0.00 | 0.00 | 0.00 | 78 | 1008.1 |
| 20260506023407 | 16 | 297 | 0.0 | 0.0 | 0.00 | 0.00 | 0.00 | 77 | 1008.0 |
| 20260506022903 | 16 | 256 | 0.0 | 0.0 | 0.00 | 0.00 | 0.00 | 77 | 1008.1 |
| 20260506022401 | 16 | 220 | 0.0 | 0.0 | 0.00 | 0.00 | 0.00 | 77 | 1008.2 |
| 20260506021859 | 16 | 220 | 0.0 | 0.0 | 0.00 | 0.00 | 0.00 | 76 | 1008.0 |
| 20260506021356 | 16 | 259 | 0.0 | 0.0 | 0.00 | 0.00 | 0.00 | 76 | 1008.4 |
| 20260506020852 | 16 | 258 | 0.0 | 0.0 | 0.00 | 0.00 | 0.00 | 77 | 1008.4 |
| 20260506020351 | 16 | 250 | 0.0 | 0.0 | 0.00 | 0.00 | 0.00 | 76 | 1008.0 |
| 20260506015848 | 17 | 243 | 0.0 | 0.0 | 0.00 | 0.00 | 0.00 | 75 | 1007.9 |
| 20260506015345 | 16 | 259 | 0.0 | 0.0 | 0.00 | 0.00 | 0.00 | 74 | 1008.2 |
| 20260506014842 | 16 | 257 | 0.0 | 0.0 | 0.00 | 0.00 | 0.00 | 74 | 1008.3 |
| 20260506014338 | 17 | 123 | 0.0 | 0.0 | 0.00 | 0.00 | 0.00 | 75 | 1008.2 |
| 20260506013835 | 17 | 248 | 0.0 | 0.0 | 0.00 | 0.00 | 0.00 | 74 | 1008.2 |
| 20260506013333 | 17 | 248 | 0.0 | 0.0 | 0.00 | 0.00 | 0.00 | 75 | 1008.2 |
| 20260506012829 | 17 | 248 | 0.0 | 0.0 | 0.00 | 0.00 | 0.00 | 73 | 1008.4 |
| 20260506012326 | 17 | 248 | 0.0 | 0.0 | 0.00 | 0.00 | 0.00 | 74 | 1008.3 |
| 20260506011823 | 17 | 248 | 0.0 | 0.0 | 0.00 | 0.00 | 0.00 | 76 | 1008.2 |
| 20260506011320 | 17 | 248 | 0.0 | 0.0 | 0.00 | 0.00 | 0.00 | 74 | 1008.3 |
| 20260506010817 | 17 | 248 | 0.0 | 0.0 | 0.00 | 0.00 | 0.00 | 74 | 1008.1 |
| 20260506010315 | 17 | 248 | 0.0 | 1.6 | 0.00 | 0.00 | 0.00 | 74 | 1008.1 |
| 20260506005812 | 17 | 216 | 0.0 | 0.0 | 0.00 | 0.00 | 0.00 | 73 | 1007.9 |
| 20260506005309 | 17 | 336 | 0.0 | 0.0 | 0.00 | 0.00 | 0.00 | 73 | 1007.9 |
| 20260506004805 | 17 | 52 | 1.6 | 1.6 | 0.00 | 0.00 | 0.00 | 72 | 1007.8 |
| 20260506004303 | 17 | 268 | 1.6 | 1.6 | 0.00 | 0.00 | 0.00 | 72 | 1007.9 |
| 20260506003759 | 17 | 291 | 0.0 | 0.0 | 0.00 | 0.00 | 0.00 | 74 | 1007.9 |
| 20260506003256 | 18 | 285 | 0.0 | 0.0 | 0.00 | 0.00 | 0.00 | 71 | 1007.8 |
| 20260506002751 | 18 | 273 | 0.0 | 0.0 | 0.00 | 0.00 | 0.00 | 71 | 1007.9 |
| 20260506002247 | 18 | 276 | 0.0 | 0.0 | 0.00 | 0.00 | 0.00 | 71 | 1007.6 |
| 20260506001743 | 18 | 270 | 4.8 | 4.8 | 0.00 | 0.00 | 0.00 | 71 | 1007.5 |
| 20260506001241 | 18 | 292 | 0.0 | 1.6 | 0.00 | 0.00 | 0.00 | 70 | 1007.0 |
| 20260506000738 | 18 | 246 | 3.2 | 3.2 | 0.00 | 0.00 | 0.00 | 69 | 1007.0 |
| 20260506000235 | 18 | 223 | 1.6 | 3.2 | 0.00 | 0.00 | 0.00 | 71 | 1006.7 |
| 20260505235732 | 18 | 172 | 1.6 | 1.6 | 0.00 | 0.00 | 0.00 | 73 | 1006.1 |
| 20260505235230 | 19 | 321 | 0.0 | 0.0 | 0.00 | 0.00 | 0.00 | 73 | 1006.2 |
| 20260505234726 | 19 | 235 | 0.0 | 1.6 | 0.00 | 0.00 | 0.00 | 72 | 1006.4 |
| 20260505234224 | 20 | 218 | 1.6 | 1.6 | 0.00 | 0.00 | 0.00 | 71 | 1005.8 |
| 20260505233720 | 20 | 289 | 0.0 | 0.0 | 0.00 | 0.00 | 0.00 | 67 | 1005.9 |
| 20260505233219 | 20 | 296 | 1.6 | 3.2 | 0.00 | 0.00 | 0.00 | 65 | 1005.9 |
| 20260505232715 | 20 | 321 | 1.6 | 1.6 | 0.00 | 0.00 | 0.00 | 65 | 1006.2 |
| 20260505232213 | 20 | 280 | 4.8 | 4.8 | 0.00 | 0.00 | 0.00 | 65 | 1006.3 |
| 20260505231709 | 20 | 292 | 0.0 | 1.6 | 0.00 | 0.00 | 0.00 | 64 | 1006.1 |
| 20260505231209 | 21 | 271 | 3.2 | 4.8 | 0.00 | 0.00 | 0.00 | 64 | 1006.5 |
| 20260505230706 | 21 | 281 | 14.5 | 16.1 | 0.00 | 0.00 | 0.00 | 63 | 1006.6 |
| 20260505230202 | 21 | 291 | 9.7 | 12.9 | 0.00 | 0.00 | 0.00 | 62 | 1006.5 |
| 20260505225659 | 20 | 288 | 11.3 | 17.7 | 0.00 | 0.00 | 0.00 | 63 | 1006.3 |
| 20260505225156 | 20 | 216 | 4.8 | 9.7 | 0.00 | 0.00 | 0.00 | 63 | 1006.3 |
| 20260505224651 | 20 | 222 | 6.4 | 6.4 | 0.00 | 0.00 | 0.00 | 62 | 1006.5 |
| 20260505224149 | 20 | 229 | 9.7 | 11.3 | 0.00 | 0.00 | 0.00 | 61 | 1004.7 |
| 20260505223646 | 20 | 300 | 4.8 | 4.8 | 0.00 | 0.00 | 0.00 | 61 | 1004.3 |
| 20260505223142 | 20 | 229 | 4.8 | 6.4 | 0.00 | 0.00 | 0.00 | 61 | 1004.2 |
| 20260505222633 | 20 | 236 | 11.3 | 16.1 | 0.00 | 0.00 | 0.00 | 60 | 1004.3 |
| 20260505222129 | 20 | 211 | 4.8 | 9.7 | 0.00 | 0.00 | 0.00 | 60 | 1004.1 |
| 20260505221626 | 20 | 187 | 11.3 | 16.1 | 0.00 | 0.00 | 0.00 | 59 | 1004.1 |
| 20260505221123 | 20 | 187 | 4.8 | 4.8 | 0.00 | 0.00 | 0.00 | 60 | 1004.1 |
| 20260505220621 | 21 | 237 | 4.8 | 6.4 | 0.00 | 0.00 | 0.00 | 59 | 1004.1 |
| 20260505220118 | 21 | 126 | 6.4 | 14.5 | 0.00 | 0.00 | 0.00 | 58 | 1004.3 |
| 20260505215616 | 21 | 210 | 3.2 | 6.4 | 0.00 | 0.00 | 0.00 | 59 | 1004.0 |
| 20260505215114 | 21 | 158 | 4.8 | 6.4 | 0.00 | 0.00 | 0.00 | 59 | 1004.0 |
| 20260505214612 | 21 | 167 | 1.6 | 3.2 | 0.00 | 0.00 | 0.00 | 59 | 1003.8 |
| 20260505214108 | 21 | 223 | 11.3 | 16.1 | 0.00 | 0.00 | 0.00 | 58 | 1004.0 |
| 20260505213606 | 22 | 268 | 1.6 | 1.6 | 0.00 | 0.00 | 0.00 | 56 | 1003.8 |
| 20260505213102 | 22 | 144 | 9.7 | 12.9 | 0.00 | 0.00 | 0.00 | 55 | 1003.7 |
| 20260505212558 | 22 | 204 | 9.7 | 12.9 | 0.00 | 0.00 | 0.00 | 55 | 1003.8 |
| 20260505212056 | 22 | 186 | 11.3 | 16.1 | 0.00 | 0.00 | 0.00 | 55 | 1003.6 |
| 20260505211553 | 22 | 201 | 9.7 | 12.9 | 0.00 | 0.00 | 0.00 | 55 | 1003.5 |
| 20260505211050 | 22 | 190 | 8.0 | 9.7 | 0.00 | 0.00 | 0.00 | 55 | 1003.2 |
| 20260505210546 | 22 | 208 | 6.4 | 9.7 | 0.00 | 0.00 | 0.00 | 54 | 1003.5 |
| 20260505210044 | 22 | 204 | 4.8 | 6.4 | 0.00 | 0.00 | 0.00 | 55 | 1003.5 |
| 20260505205541 | 22 | 241 | 0.0 | 1.6 | 0.00 | 0.00 | 0.00 | 55 | 1003.5 |
| 20260505205038 | 23 | 221 | 6.4 | 9.7 | 0.00 | 0.00 | 0.00 | 55 | 1003.4 |
| 20260505204536 | 23 | 28 | 6.4 | 9.7 | 0.00 | 0.00 | 0.00 | 53 | 1003.5 |
| 20260505204033 | 23 | 244 | 4.8 | 4.8 | 0.00 | 0.00 | 0.00 | 54 | 1003.4 |
| 20260505203529 | 23 | 215 | 9.7 | 12.9 | 0.00 | 0.00 | 0.00 | 55 | 1003.6 |
| 20260505203027 | 23 | 210 | 4.8 | 4.8 | 0.00 | 0.00 | 0.00 | 53 | 1003.7 |
| 20260505202523 | 23 | 198 | 9.7 | 17.7 | 0.00 | 0.00 | 0.00 | 54 | 1003.7 |
| 20260505202018 | 23 | 333 | 8.0 | 12.9 | 0.00 | 0.00 | 0.00 | 54 | 1003.6 |
| 20260505201516 | 23 | 114 | 3.2 | 4.8 | 0.00 | 0.00 | 0.00 | 57 | 1003.5 |
| 20260505201013 | 23 | 220 | 6.4 | 11.3 | 0.00 | 0.00 | 0.00 | 56 | 1003.7 |
| 20260505200511 | 22 | 211 | 11.3 | 16.1 | 0.00 | 0.00 | 0.00 | 55 | 1003.9 |
| 20260505200008 | 23 | 145 | 9.7 | 24.1 | 0.00 | 0.00 | 0.00 | 55 | 1003.8 |
| 20260505195504 | 23 | 204 | 9.7 | 12.9 | 0.00 | 0.00 | 0.00 | 54 | 1003.9 |
| 20260505195001 | 23 | 174 | 11.3 | 14.5 | 0.00 | 0.00 | 0.00 | 54 | 1003.9 |
| 20260505194459 | 23 | 237 | 12.9 | 17.7 | 0.00 | 0.00 | 0.00 | 53 | 1004.1 |
| 20260505193958 | 23 | 238 | 4.8 | 9.7 | 0.00 | 0.00 | 0.00 | 53 | 1004.1 |
| 20260505193456 | 24 | 191 | 14.5 | 24.1 | 0.00 | 0.00 | 0.00 | 51 | 1004.2 |
| 20260505192953 | 24 | 187 | 6.4 | 9.7 | 0.00 | 0.00 | 0.00 | 51 | 1004.0 |
| 20260505192452 | 24 | 222 | 6.4 | 6.4 | 0.00 | 0.00 | 0.00 | 52 | 1004.0 |
| 20260505191949 | 24 | 111 | 8.0 | 11.3 | 0.00 | 0.00 | 0.00 | 51 | 1004.3 |
| 20260505191448 | 24 | 232 | 14.5 | 17.7 | 0.00 | 0.00 | 0.00 | 50 | 1004.3 |
| 20260505190944 | 25 | 147 | 11.3 | 14.5 | 0.00 | 0.00 | 0.00 | 50 | 1004.4 |
| 20260505190439 | 25 | 252 | 12.9 | 17.7 | 0.00 | 0.00 | 0.00 | 50 | 1004.6 |
| 20260505185935 | 25 | 212 | 4.8 | 4.8 | 0.00 | 0.00 | 0.00 | 53 | 1004.6 |
| 20260505185433 | 25 | 271 | 9.7 | 12.9 | 0.00 | 0.00 | 0.00 | 51 | 1004.7 |
| 20260505184929 | 25 | 126 | 6.4 | 9.7 | 0.00 | 0.00 | 0.00 | 51 | 1004.7 |
| 20260505184426 | 25 | 133 | 1.6 | 1.6 | 0.00 | 0.00 | 0.00 | 51 | 1004.7 |
| 20260505183922 | 25 | 176 | 6.4 | 9.7 | 0.00 | 0.00 | 0.00 | 53 | 1004.8 |
| 20260505183419 | 25 | 114 | 1.6 | 3.2 | 0.00 | 0.00 | 0.00 | 52 | 1004.9 |
| 20260505182916 | 24 | 240 | 8.0 | 14.5 | 0.00 | 0.00 | 0.00 | 54 | 1004.8 |
| 20260505182413 | 24 | 158 | 4.8 | 6.4 | 0.00 | 0.00 | 0.00 | 53 | 1004.6 |
| 20260505181909 | 25 | 282 | 4.8 | 6.4 | 0.00 | 0.00 | 0.00 | 54 | 1005.0 |
| 20260505181407 | 25 | 223 | 6.4 | 9.7 | 0.00 | 0.00 | 0.00 | 56 | 1005.0 |
| 20260505180903 | 24 | 222 | 6.4 | 11.3 | 0.00 | 0.00 | 0.00 | 55 | 1005.0 |
| 20260505180400 | 23 | 236 | 1.6 | 1.6 | 0.00 | 0.00 | 0.00 | 57 | 1005.0 |
| 20260505175856 | 23 | 251 | 1.6 | 3.2 | 0.00 | 0.00 | 0.00 | 57 | 1005.1 |
| 20260505175353 | 23 | 84 | 4.8 | 6.4 | 0.00 | 0.00 | 0.00 | 56 | 1005.1 |
| 20260505174849 | 23 | 230 | 3.2 | 4.8 | 0.00 | 0.00 | 0.00 | 54 | 1005.3 |
| 20260505174347 | 23 | 221 | 4.8 | 6.4 | 0.00 | 0.00 | 0.00 | 56 | 1005.3 |
| 20260505173843 | 23 | 200 | 6.4 | 9.7 | 0.00 | 0.00 | 0.00 | 55 | 1005.0 |
| 20260505173339 | 24 | 310 | 8.0 | 9.7 | 0.00 | 0.00 | 0.00 | 57 | 1005.3 |
| 20260505172836 | 24 | 197 | 6.4 | 11.3 | 0.00 | 0.00 | 0.00 | 53 | 1005.5 |
| 20260505172334 | 25 | 349 | 4.8 | 6.4 | 0.00 | 0.00 | 0.00 | 52 | 1005.4 |
| 20260505171834 | 25 | 230 | 3.2 | 3.2 | 0.00 | 0.00 | 0.00 | 53 | 1005.5 |
| 20260505171331 | 25 | 272 | 8.0 | 9.7 | 0.00 | 0.00 | 0.00 | 52 | 1005.5 |
| 20260505170827 | 25 | 235 | 4.8 | 6.4 | 0.00 | 0.00 | 0.00 | 51 | 1005.7 |
| 20260505170324 | 25 | 164 | 4.8 | 4.8 | 0.00 | 0.00 | 0.00 | 55 | 1005.8 |
| 20260505165820 | 25 | 232 | 3.2 | 4.8 | 0.00 | 0.00 | 0.00 | 53 | 1006.0 |
| 20260505165315 | 25 | 145 | 4.8 | 6.4 | 0.00 | 0.00 | 0.00 | 53 | 1005.9 |
| 20260505164811 | 25 | 271 | 9.7 | 11.3 | 0.00 | 0.00 | 0.00 | 50 | 1006.0 |
| 20260505164308 | 26 | 189 | 9.7 | 11.3 | 0.00 | 0.00 | 0.00 | 50 | 1006.1 |
| 20260505163806 | 25 | 222 | 6.4 | 6.4 | 0.00 | 0.00 | 0.00 | 48 | 1006.3 |
| 20260505163305 | 25 | 239 | 6.4 | 9.7 | 0.00 | 0.00 | 0.00 | 48 | 1006.3 |
| 20260505162803 | 25 | 255 | 4.8 | 4.8 | 0.00 | 0.00 | 0.00 | 50 | 1006.3 |
| 20260505162259 | 25 | 272 | 6.4 | 9.7 | 0.00 | 0.00 | 0.00 | 49 | 1006.5 |
| 20260505161756 | 25 | 51 | 9.7 | 14.5 | 0.00 | 0.00 | 0.00 | 50 | 1006.8 |
| 20260505161253 | 24 | 282 | 11.3 | 12.9 | 0.00 | 0.00 | 0.00 | 50 | 1006.8 |
| 20260505160750 | 24 | 180 | 4.8 | 6.4 | 0.00 | 0.00 | 0.00 | 51 | 1007.0 |
| 20260505160248 | 23 | 275 | 4.8 | 4.8 | 0.00 | 0.00 | 0.00 | 53 | 1007.2 |
| 20260505153227 | 23 | 205 | 4.8 | 6.4 | 0.00 | 0.00 | 0.00 | 54 | 1007.6 |
| 20260505152724 | 23 | 302 | 6.4 | 6.4 | 0.00 | 0.00 | 0.00 | 50 | 1007.5 |
| 20260505152221 | 23 | 230 | 8.0 | 11.3 | 0.00 | 0.00 | 0.00 | 51 | 1007.6 |
| 20260505151715 | 22 | 241 | 1.6 | 3.2 | 0.00 | 0.00 | 0.00 | 54 | 1007.6 |
| 20260505151213 | 23 | 209 | 4.8 | 4.8 | 0.00 | 0.00 | 0.00 | 52 | 1008.0 |
| 20260505150709 | 22 | 228 | 3.2 | 4.8 | 0.00 | 0.00 | 0.00 | 53 | 1007.9 |
| 20260505150207 | 22 | 194 | 3.2 | 3.2 | 0.00 | 0.00 | 0.00 | 52 | 1007.9 |
| 20260505140639 | 20 | 267 | 1.6 | 3.2 | 0.00 | 0.00 | 0.00 | 56 | 1007.3 |
| 20260505140137 | 20 | 215 | 3.2 | 3.2 | 0.00 | 0.00 | 0.00 | 56 | 1007.3 |
| 20260505124550 | 17 | 234 | 6.4 | 6.4 | 0.00 | 0.00 | 0.00 | 62 | 1008.0 |
| 20260505124046 | 17 | 286 | 3.2 | 4.8 | 0.00 | 0.00 | 0.00 | 64 | 1007.9 |
| 20260505123543 | 16 | 216 | 4.8 | 6.4 | 0.00 | 0.00 | 0.00 | 65 | 1007.8 |
| 20260505123039 | 16 | 228 | 3.2 | 4.8 | 0.00 | 0.00 | 0.00 | 68 | 1007.9 |
| 20260505122536 | 16 | 222 | 3.2 | 4.8 | 0.00 | 0.00 | 0.00 | 67 | 1007.9 |
| 20260505122033 | 16 | 188 | 6.4 | 9.7 | 0.00 | 0.00 | 0.00 | 65 | 1007.7 |
| 20260505121529 | 15 | 197 | 3.2 | 3.2 | 0.00 | 0.00 | 0.00 | 69 | 1007.7 |
| 20260505121026 | 15 | 243 | 3.2 | 3.2 | 0.00 | 0.00 | 0.00 | 68 | 1007.9 |
| 20260505120522 | 15 | 204 | 4.8 | 6.4 | 0.00 | 0.00 | 0.00 | 68 | 1008.0 |
| 20260505120018 | 15 | 217 | 1.6 | 3.2 | 0.00 | 0.00 | 0.00 | 69 | 1008.0 |
| 20260505115513 | 15 | 226 | 1.6 | 3.2 | 0.00 | 0.00 | 0.00 | 69 | 1008.2 |
| 20260505115011 | 14 | 242 | 4.8 | 4.8 | 0.00 | 0.00 | 0.00 | 69 | 1008.2 |
| 20260505114508 | 14 | 209 | 3.2 | 3.2 | 0.00 | 0.00 | 0.00 | 72 | 1008.3 |
| 20260505114004 | 13 | 282 | 3.2 | 3.2 | 0.00 | 0.00 | 0.00 | 71 | 1008.2 |
| 20260505113500 | 13 | 256 | 1.6 | 1.6 | 0.00 | 0.00 | 0.00 | 72 | 1008.2 |
| 20260505112956 | 13 | 286 | 3.2 | 3.2 | 0.00 | 0.00 | 0.00 | 72 | 1008.2 |
| 20260505112453 | 13 | 322 | 0.0 | 0.0 | 0.00 | 0.00 | 0.00 | 74 | 1008.5 |
| 20260505111950 | 13 | 125 | 0.0 | 1.6 | 0.00 | 0.00 | 0.00 | 74 | 1008.5 |
| 20260505111444 | 12 | 240 | 1.6 | 3.2 | 0.00 | 0.00 | 0.00 | 74 | 1008.5 |
| 20260505110941 | 13 | 290 | 0.0 | 0.0 | 0.00 | 0.00 | 0.00 | 75 | 1008.1 |
| 20260505110438 | 12 | 298 | 0.0 | 0.0 | 0.00 | 0.00 | 0.00 | 76 | 1008.4 |
| 20260505101909 | 7 | 289 | 0.0 | 0.0 | 0.00 | 0.00 | 0.00 | 89 | 1008.5 |
| 20260505101403 | 7 | 293 | 0.0 | 0.0 | 0.00 | 0.00 | 0.00 | 88 | 1008.3 |
| 20260505100859 | 8 | 296 | 0.0 | 0.0 | 0.00 | 0.00 | 0.00 | 88 | 1008.5 |
| 20260505100356 | 7 | 302 | 0.0 | 0.0 | 0.00 | 0.00 | 0.00 | 88 | 1008.3 |
| 20260505095852 | 7 | 288 | 0.0 | 0.0 | 0.00 | 0.00 | 0.00 | 89 | 1008.2 |
| 20260505095350 | 7 | 303 | 0.0 | 0.0 | 0.00 | 0.00 | 0.00 | 90 | 1008.2 |
| 20260505094845 | 7 | 300 | 0.0 | 0.0 | 0.00 | 0.00 | 0.00 | 89 | 1008.4 |
| 20260505094342 | 7 | 287 | 0.0 | 0.0 | 0.00 | 0.00 | 0.00 | 89 | 1008.4 |
| 20260505093838 | 7 | 282 | 0.0 | 0.0 | 0.00 | 0.00 | 0.00 | 89 | 1008.1 |
| 20260505093336 | 7 | 280 | 0.0 | 0.0 | 0.00 | 0.00 | 0.00 | 88 | 1008.4 |
| 20260505092833 | 7 | 290 | 0.0 | 0.0 | 0.00 | 0.00 | 0.00 | 87 | 1008.2 |
| 20260505092331 | 7 | 286 | 0.0 | 0.0 | 0.00 | 0.00 | 0.00 | 87 | 1008.3 |
| 20260505091828 | 8 | 310 | 0.0 | 0.0 | 0.00 | 0.00 | 0.00 | 85 | 1008.3 |
| 20260505091326 | 8 | 353 | 0.0 | 0.0 | 0.00 | 0.00 | 0.00 | 86 | 1008.3 |
| 20260505090824 | 7 | 306 | 0.0 | 0.0 | 0.00 | 0.00 | 0.00 | 88 | 1008.6 |
| 20260505090322 | 7 | 302 | 0.0 | 0.0 | 0.00 | 0.00 | 0.00 | 89 | 1008.3 |
| 20260505085818 | 6 | 299 | 0.0 | 0.0 | 0.00 | 0.00 | 0.00 | 90 | 1008.3 |
| 20260505085317 | 7 | 290 | 0.0 | 0.0 | 0.00 | 0.00 | 0.00 | 89 | 1008.3 |
| 20260505084814 | 7 | 294 | 0.0 | 0.0 | 0.00 | 0.00 | 0.00 | 89 | 1008.5 |
| 20260505084313 | 7 | 301 | 0.0 | 0.0 | 0.00 | 0.00 | 0.00 | 89 | 1008.4 |
| 20260505083809 | 7 | 282 | 0.0 | 0.0 | 0.00 | 0.00 | 0.00 | 89 | 1008.7 |
| 20260505083306 | 7 | 296 | 0.0 | 0.0 | 0.00 | 0.00 | 0.00 | 87 | 1008.7 |
| 20260505082803 | 7 | 329 | 0.0 | 0.0 | 0.00 | 0.00 | 0.00 | 86 | 1008.6 |
| 20260505082259 | 7 | 311 | 0.0 | 0.0 | 0.00 | 0.00 | 0.00 | 86 | 1008.6 |
| 20260505081755 | 8 | 306 | 0.0 | 0.0 | 0.00 | 0.00 | 0.00 | 84 | 1008.7 |
| 20260505081252 | 8 | 313 | 0.0 | 0.0 | 0.00 | 0.00 | 0.00 | 84 | 1008.7 |
| 20260505080749 | 8 | 307 | 0.0 | 0.0 | 0.00 | 0.00 | 0.00 | 83 | 1008.8 |
| 20260505080245 | 8 | 300 | 0.0 | 0.0 | 0.00 | 0.00 | 0.00 | 82 | 1008.7 |
| 20260505075740 | 8 | 336 | 0.0 | 0.0 | 0.00 | 0.00 | 0.00 | 81 | 1008.9 |
| 20260505075238 | 9 | 139 | 1.6 | 3.2 | 0.00 | 0.00 | 0.00 | 80 | 1008.7 |
| 20260505074735 | 10 | 313 | 0.0 | 0.0 | 0.00 | 0.00 | 0.00 | 79 | 1008.9 |
| 20260505074232 | 10 | 356 | 0.0 | 0.0 | 0.00 | 0.00 | 0.00 | 77 | 1008.7 |
| 20260505073730 | 10 | 357 | 0.0 | 0.0 | 0.00 | 0.00 | 0.00 | 76 | 1008.6 |
| 20260505073227 | 10 | 344 | 0.0 | 1.6 | 0.00 | 0.00 | 0.00 | 76 | 1008.8 |
| 20260505072724 | 10 | 309 | 0.0 | 1.6 | 0.00 | 0.00 | 0.00 | 75 | 1008.8 |
| 20260505072220 | 11 | 301 | 0.0 | 0.0 | 0.00 | 0.00 | 0.00 | 74 | 1008.7 |
| 20260505071716 | 11 | 283 | 0.0 | 0.0 | 0.00 | 0.00 | 0.00 | 72 | 1008.6 |
| 20260505071213 | 11 | 168 | 0.0 | 0.0 | 0.00 | 0.00 | 0.00 | 71 | 1008.7 |
| 20260505070711 | 11 | 287 | 0.0 | 0.0 | 0.00 | 0.00 | 0.00 | 70 | 1008.6 |
| 20260505070207 | 12 | 317 | 0.0 | 1.6 | 0.00 | 0.00 | 0.00 | 69 | 1008.6 |
| 20260505065703 | 12 | 303 | 0.0 | 0.0 | 0.00 | 0.00 | 0.00 | 69 | 1008.6 |
| 20260505065200 | 12 | 234 | 0.0 | 0.0 | 0.00 | 0.00 | 0.00 | 68 | 1008.4 |
| 20260505064656 | 12 | 246 | 1.6 | 1.6 | 0.00 | 0.00 | 0.00 | 67 | 1008.6 |
| 20260505064155 | 13 | 275 | 1.6 | 1.6 | 0.00 | 0.00 | 0.00 | 66 | 1008.4 |
| 20260505063652 | 13 | 228 | 1.6 | 3.2 | 0.00 | 0.00 | 0.00 | 65 | 1008.7 |
| 20260505063148 | 13 | 210 | 3.2 | 4.8 | 0.00 | 0.00 | 0.00 | 65 | 1008.5 |
| 20260505062644 | 13 | 248 | 1.6 | 3.2 | 0.00 | 0.00 | 0.00 | 65 | 1008.5 |
| 20260505062142 | 13 | 220 | 1.6 | 3.2 | 0.00 | 0.00 | 0.00 | 64 | 1008.6 |
| 20260505061639 | 13 | 260 | 1.6 | 1.6 | 0.00 | 0.00 | 0.00 | 66 | 1008.6 |
| 20260505061137 | 13 | 219 | 1.6 | 1.6 | 0.00 | 0.00 | 0.00 | 65 | 1008.6 |
| 20260505060634 | 13 | 230 | 1.6 | 1.6 | 0.00 | 0.00 | 0.00 | 64 | 1008.5 |
| 20260505060130 | 13 | 195 | 3.2 | 3.2 | 0.00 | 0.00 | 0.00 | 64 | 1008.5 |
| 20260505055626 | 13 | 209 | 3.2 | 3.2 | 0.00 | 0.00 | 0.00 | 63 | 1008.7 |
| 20260505055123 | 13 | 230 | 3.2 | 3.2 | 0.00 | 0.00 | 0.00 | 63 | 1008.4 |
| 20260505054620 | 13 | 241 | 3.2 | 3.2 | 0.00 | 0.00 | 0.00 | 63 | 1008.6 |
| 20260505054118 | 14 | 220 | 4.8 | 4.8 | 0.00 | 0.00 | 0.00 | 62 | 1008.6 |
| 20260505053615 | 14 | 229 | 3.2 | 3.2 | 0.00 | 0.00 | 0.00 | 62 | 1008.7 |
| 20260505053111 | 14 | 240 | 3.2 | 3.2 | 0.00 | 0.00 | 0.00 | 61 | 1008.4 |
| 20260505052608 | 14 | 231 | 1.6 | 1.6 | 0.00 | 0.00 | 0.00 | 61 | 1008.2 |
| 20260505052106 | 14 | 209 | 3.2 | 4.8 | 0.00 | 0.00 | 0.00 | 62 | 1008.5 |
| 20260505051603 | 14 | 235 | 3.2 | 3.2 | 0.00 | 0.00 | 0.00 | 62 | 1008.4 |
| 20260505051101 | 14 | 245 | 3.2 | 4.8 | 0.00 | 0.00 | 0.00 | 62 | 1008.5 |
| 20260505050558 | 14 | 246 | 1.6 | 1.6 | 0.00 | 0.00 | 0.00 | 62 | 1008.6 |